Regional Weather Roundup
Issued by NWS Albany, NY

Home | Current Version | Previous Version | Text Only | Print | Product List | Glossary On
Versions: 1 2 3 4 5 6 7 8 9 10 11 12 13 14 15 16 17 18 19 20 21 22 23 24 25 26 27 28 29 30 31 32 33 34 35 36 37 38 39 40 41 42 43 44 45 46 47 48 49 50
247
ASUS41 KALY 210010
RWRALY

NEW YORK STATE HOURLY WEATHER ROUNDUP
NATIONAL WEATHER SERVICE ALBANY NY
800 PM EDT SUN MAY 20 2018

NOTE: "FAIR" INDICATES FEW OR NO CLOUDS BELOW 12,000 FEET WITH NO
SIGNIFICANT WEATHER AND/OR NO OBSTRUCTIONS TO VISIBILITY.

NYZ032-033-038>043-046>054-057>066-NYZ062>081-082-084-210100-
EAST


CITY           SKY/WX    TMP DP  RH WIND       PRES   REMARKS
ALBANY         FAIR      66  54  65 W12       30.02R
GLENS FALLS    FAIR      64  53  67 NW5       30.00R
POUGHKEEPSIE   FAIR      69  56  62 N5        29.99R
NEWBURGH       PTCLDY    73  61  64 NW12G18   30.02R
MONTGOMERY     FAIR      69  54  58 NW10      30.01R
WHITE PLAINS   FAIR      71  59  65 W8        29.98R
ISLIP          MOCLDY    75  63  66 W10       29.96R
NEW YORK CITY  MOCLDY    73  57  57 NW14      29.98R
CENTRAL PARK   MOCLDY    74  58  57 VRB5      30.02R
$$

NYZ005>009-017-018-044>046-055-056-210100-
CENTRAL


CITY           SKY/WX    TMP DP  RH WIND       PRES   REMARKS
FULTON         FAIR      59  51  75 NW7       30.10R
SYRACUSE       MOCLDY    62  56  80 NW8       30.08R
ROME           MOCLDY    61  53  75 NW14      30.09R
ELMIRA         CLOUDY    63  57  81 W5        30.10S
BINGHAMTON     CLOUDY    58  53  84 NW5       30.10S
$$

NYZ026>034-041>043-087-210100-
NORTH


CITY           SKY/WX    TMP DP  RH WIND       PRES   REMARKS
WATERTOWN      FAIR      60  51  72 W5        30.08R
FORT DRUM      NOT AVBL
OGDENSBURG     FAIR      62  42  47 W5        30.06S
MASSENA        FAIR      60  42  51 W8        30.06R
SARANAC LAKE   FAIR      54  45  71 VRB6      30.05R
PLATTSBURGH    FAIR      62  46  55 VRB5      30.01R
$$

NYZ001>004-010>016-019>021-085-210100-
WEST


CITY           SKY/WX    TMP DP  RH WIND       PRES   REMARKS
NIAGARA FALLS  FAIR      62  53  72 S5        30.11S
BUFFALO        MOCLDY    61  51  70 SW9       30.13R
DUNKIRK        FAIR      57  51  80 SW10      30.14S
JAMESTOWN      FAIR      58  52  80 W6        30.15F
WELLSVILLE     MOCLDY    60  54  80 W5        30.15S
ROCHESTER      MOCLDY    65  51  60 NW8       30.11R
PENN YAN       MOCLDY    63  56  78 W3        30.10S
$$

             KEY
       WCI = WIND CHILL INDEX
       VSB = VISIBILITY
       HX  = HEAT INDEX
$$




USA.gov is the U.S. government's official web portal to all federal, state and local government web resources and services.